ONEWEB-0118, 47264

Orbit data source: Space-Track

ONEWEB-0118, 47264 is a payload satellite owned by One Web (UK) in LEO that was launched on Fri, 18 Dec 2020 UTC via a SOYUZ-2-1B launch vehicle from the Vostochny Cosmodrome (VOSTO). Payload-class satellites include a variety of spacecraft equipped with specific instruments for various scientific and technological missions. These include communications satellites like Starlink; space stations such as the ISS; scientific satellites like the Hubble; Earth observation satellites from companies like Planet Labs, Umbra, and HawkEye 360; GPS; miniature CubeSats for education and research; and military/defense satellites.

Loading next visibility...
Identifier
47264, 2020-100G
Orbit
LEO
Country
Flag of UKUK
Related business
Manufacturer
One Web
Mission
Operational Commercial Communications
Bus & Motor
ARROW, Unknown motor
Mass
148 kg wet, ~140 kg dry
Launch date (UTC)
2020-12-18 (6 years ago)
Launch vehicle
SOYUZ-2-1B
Launch site
Vostochny Cosmodrome (VOSTO)
Object type
Payload
Rocket body
Debris
Shape & HBR
Trap Box + 2 Pan, 6.7 m
Radar Cross Section
3.464 m², Large (>1 m²)

Expand to show TLE details & history
Last TLE update: 2 days ago

TLE from 2 days ago
0 ONEWEB-0118
1 47264U 20100G   26171.45789792 -.00000244  00000-0 -71307-3 0  9997
2 47264  87.8946 350.0021 0002110  91.1708 268.9662 13.12443385265150
Epoch: 2026-06-20T10:59Z
TLE epoch observation values (Epoch: 2026-06-20T10:59:22.380Z)
Latitude
-0.00004°
Longitude
-83.51339°
Altitude
1,216.642 km
Speed
7.246 km/s
True Right ascension
23h 20m 00s
True Declination
0° 00' 00"
Sunlit
Object was in daylight at epoch
Visualization orbit readout
Latitude
Unknown
Longitude
Unknown
Altitude
Unknown
Speed
Unknown
Apparent Right ascension
Unknown
Apparent Declination
Unknown
Sunlit
N/A
Visualization observer readout
Local Sidereal Time
21:36:44
Azimuth
Unknown
Elevation
Unknown
Doppler factor
Unknown
Orbital elements
Apogee altitude
1,212.44 km
Perigee altitude
1,209.237 km
Semi-major axis
7,588.975 km
Eccentricity
0.00021
Inclination
87.8946°
RAAN
350.0021°
Arg. of periapsis
91.1708°
True anomaly
268.94203°
Mean anomaly
268.9662°
Eccentric anomaly
268.95411°
Mean motion
3.28298 °/min
Orbital period
109.66 mins
BSTAR
-0.00071307
Loading maneuver chart data...
Computing Atmospheric mass density...
Loading historical data...
Loading historical data...
Loading historical data...
Loading historical data...
Loading historical data...
Loading historical data...
Loading historical data...

Documentation

Showing up to 5 results
|